Location: Ciserano
(45.5833°N, 9.6000°E)
Time: 17:12:05
(UTC+00:00)

MOS 1-B - Pass Details

Date: 29 November 2020
Orbit: 905 x 914 km, 99.4° (Epoch: 23 January)

Event Time Altitude Azimuth Distance (km) Brightness Sun altitude
Rises 05:59:54 0° 11° (N) 3,561 7.3 -7.0°
Reaches altitude 10° 06:02:21 10° 8° (N) 2,614 6.6 -6.6°
Maximum altitude 06:08:03 58° 291° (WNW) 1,063 4.5 -5.7°
Drops below altitude 10° 06:13:42 10° 214° (SW) 2,594 6.7 -4.8°
Sets 06:16:08 0° 210° (SSW) 3,531 7.4 -4.4°
